User: anonymous   Login
Location: *
(51.1248°S, 108.4023°W)
Time: 12:57:06
(UTC+00:00)
Language:

APEX - Orbit

View from above orbital plane
View from above orbital plane
View from above satellite
View from above satellite

Ground track
Ground track

The orbit data is extracted from the following two-line orbital elements,

1 23191U 94046A   21266.08561157  .00008569  00000-0  24552-3 0  9998
2 23191  69.9140 152.5325 0522902 207.0277 150.2743 14.58229788342224
Epoch (UTC): 23 September 2021 02:03:16
Eccentricity: 0.0522902
inclination: 69.9140°
perigee height: 329 km
apogee height: 1069 km
right ascension of ascending node: 152.5325°
argument of perigee: 207.0277°
revolutions per day: 14.58229788
mean anomaly at epoch: 150.2743°
orbit number at epoch: 34222

The dashed part of the orbit path shows where the satellite is in the earth's shadow,  

DLR